Home   Weather   Yangon   Past weeks
Flag for Myanmar

Past Weather in Yangon, Myanmar — Yesterday and Last 2 Weeks

Now
73 °F

Clear.


Feels Like: 73 °F
Forecast: 92 / 67 °F
Wind: 2 mph from West

Location: Rangoon Airport

Current Time: Feb 19, 2019 at 5:19:30 am

Latest Report: Feb 19, 2019 at 4:30 am


Visibility: 4 mi

Pressure: 29.83 "Hg

Humidity: 83%

Dew Point: 68 °F

Location of YangonLocation

Past Weather in Yangon — Graph

°F

Yangon Temperature Yesterday

Maximum temperature yesterday: 93 °F (at 2:00 pm)
Minimum temperature yesterday: 72 °F (at 6:30 am)
Average temperature yesterday: 81 °F

High & Low Weather Summary for the Past Weeks

 TemperatureHumidityPressure
High102 °F (Feb 6, 7:30 pm)100% (Feb 11, 8:00 am)30.07 "Hg (Feb 11, 8:00 am)
Low68 °F (Feb 7, 5:30 am)20% (Feb 6, 7:30 pm)29.77 "Hg (Feb 17, 3:00 pm)
Average82 °F64%29.91 "Hg
* Reported Feb 4 3:30 am — Feb 19 3:30 am, Yangon. Weather by CustomWeather, © 2019

Note: Actual official high and low records may vary slightly from our data, if they occured in-between our weather recording intervals... More about our weather records

Advertising

Yangon Weather History for the Previous 24 Hours

Scroll right to see more
 ConditionsComfort  
Time TempWeatherWind HumidityBarometerVisibility
3:30 am
Tue, Feb 19
73 °FClear.2 mph83%29.83 "Hg4 mi
3:00 am75 °FClear.2 mph74%29.83 "Hg4 mi
2:30 am75 °FClear.2 mph74%29.83 "Hg4 mi
2:00 am75 °FClear.2 mph74%29.86 "Hg4 mi
1:30 am75 °FClear.2 mph74%29.86 "Hg4 mi
1:00 am77 °FClear.2 mph74%29.86 "Hg4 mi
12:30 am77 °FClear.2 mph74%29.89 "Hg4 mi
12:00 am77 °FClear.3 mph74%29.89 "Hg4 mi
11:30 pm
Mon, Feb 18
79 °FClear.5 mph61%29.89 "Hg4 mi
11:00 pm79 °FClear.7 mph61%29.89 "Hg4 mi
10:30 pm79 °FClear.6 mph61%29.89 "Hg4 mi
10:00 pm81 °FClear.8 mph54%29.86 "Hg4 mi
9:30 pm81 °FClear.9 mph54%29.86 "Hg4 mi
9:00 pm82 °FClear.5 mph51%29.89 "Hg4 mi
8:30 pm82 °FClear.5 mph51%29.86 "Hg4 mi
8:00 pm82 °FClear.5 mph51%29.86 "Hg4 mi
7:30 pm84 °FClear.5 mph51%29.83 "Hg4 mi
7:00 pm84 °FClear.5 mph51%29.83 "Hg4 mi
6:30 pm86 °FClear.5 mph46%29.80 "Hg4 mi
6:00 pm86 °FClear.3 mph46%29.80 "Hg4 mi
5:00 pm90 °FClear.7 mph43%29.83 "Hg4 mi
4:30 pm90 °FClear.7 mph43%29.83 "Hg5 mi
4:00 pm91 °FClear.7 mph38%29.80 "Hg5 mi
3:00 pm93 °FClear.7 mph34%29.83 "Hg5 mi
2:30 pm93 °FClear.6 mph34%29.83 "Hg5 mi
2:00 pm93 °FClear.2 mph34%29.83 "Hg5 mi
1:30 pm91 °FClear.3 mph38%29.86 "Hg5 mi
1:00 pm91 °FClear.7 mph38%29.89 "Hg5 mi
12:30 pm91 °FClear.7 mph38%29.89 "Hg5 mi
12:00 pm90 °FClear.12 mph43%29.92 "Hg5 mi
11:30 am88 °FClear.12 mph49%29.92 "Hg5 mi
11:00 am86 °FClear.5 mph49%29.95 "Hg5 mi
10:30 am84 °FClear.5 mph58%29.95 "Hg5 mi
9:30 am81 °FClear.5 mph62%29.92 "Hg5 mi
9:00 am77 °FClear.5 mph79%29.92 "Hg4 mi
8:30 am77 °FHaze.5 mph79%29.89 "Hg4 mi
8:00 am75 °FFog.5 mph74%29.89 "Hg4 mi
7:30 am73 °FFog.2 mph83%29.89 "Hg3 mi
7:00 am73 °FFog.3 mph83%29.86 "Hg3 mi
6:30 am72 °FFog.5 mph94%29.83 "Hg3 mi
5:30 am73 °FHaze.7 mph89%29.80 "Hg4 mi
5:00 am73 °FHaze.7 mph89%29.80 "Hg4 mi
Weather by CustomWeather, © 2019

See weather overview